STARLINK-11253 [DTC] (60935 NORAD) Tracking and Keplerian Element Data

This shows tracking and keplerian element data for the satellite.

Feedback or suggestion? Click here.




ElementValue
Catalog60935
NameSTARLINK-11253 [DTC]
Epoch Orbit779
Epoch Day286.48544421
Epoch Year2024
RAAN351.475
Inclination53.1572
Eccentricity0.0001244
Argument of Perigee71.5323
Mean Anonmoly288.583
Mean Motion15.6973528
Decay Rate3.004E-05
L11 60935U 24155M 24286.48544421 .00003004 00000+0 29613-4 0 9995
L22 60935 53.1572 351.4750 0001244 71.5323 288.5830 15.69735280 7798



Live tracking and technical data element details for STARLINK-11253 [DTC] (NORAD 60935). STARLINK-11253 [DTC] can be tracked NOW for your location showing map with azimuth and elevation plus other details from your city location.







IsCatalogInMostPopularTable: catalog: 60935, numindb: 9
Update: records affected: 1



GetName: 60935 STARLINK-11253 [DTC]

Hit Count: updated at: Wed, 04 Dec 2024 19:26:24 GMT